Preview of NWS' New Version of Forecast
This preview is not operational and should not be used for support decisions.

Regional Weather Roundup (RWR)

Issued by National Weather Service (NWS)

                            
000
ASUS45 KABQ 181001
RWRNM 
NEW MEXICO REGIONAL WEATHER ROUNDUP
NATIONAL WEATHER SERVICE ALBUQUERQUE NM
400 AM MDT MON MAR 18 2019

NOTE: "FAIR" MEANS FEW OR NO CLOUDS BELOW 12,000 FEET AGL WITH NO
       SIGNIFICANT WEATHER OR OBSTRUCTIONS TO VISION.

      THIS PRODUCT IS RELEASED AS TWO VERSIONS.  ONE VERSION NEAR
      THE TOP OF THE HOUR CONTAINING PRELIMINARY DATA FROM ALBUQUERQUE
      AND OTHER STATIONS.  A FINAL VERSION WITH ADDITIONAL DATA IS 
      ISSUED ABOUT 10 MINUTES AFTER THE HOUR.
 
NMZ501-503-504-510>518-181100-
NORTHWEST PLATEAU/NORTHCENTRAL MOUNTAINS
  
CITY           SKY/WX    TMP DP  RH WIND       PRES   REMARKS
FARMINGTON     FAIR      33  27  78 E6        30.18F WCI  28          
LOS ALAMOS     FAIR      38  24  57 SW12      30.26F WCI  30          
SANTA FE       FAIR      32  25  75 S6        30.23F WCI  26          
TAOS           FAIR      34  22  61 E8G20     30.28S WCI  27          
ANGEL FIRE       N/A     19  18  93 CALM      30.31F                  

$$
NMZ402-403-502-505>509-181100-
WESTCENTRAL MOUNTAINS/SOUTHWEST MOUNTAINS
  
CITY           SKY/WX    TMP DP  RH WIND       PRES   REMARKS
GALLUP         FAIR      28  23  81 CALM      30.21F                  
GRANTS         FAIR      26  18  71 NW12      30.24F WCI  15          
SILVER CITY    FAIR      33  28  82 NE6       30.18F WCI  28          

$$
NMZ407-409-411-412-181100-
SOUTHERN DESERTS
  
CITY           SKY/WX    TMP DP  RH WIND       PRES   REMARKS
DEMING         FAIR      40  32  73 NE9       30.16F WCI  34          
LAS CRUCES     FAIR      46  29  51 SE6       30.17F                  
ALAMOGORDO     FAIR      41  28  60 N9        30.19F                  
T OR C         FAIR      39  27  62 W8        30.18F WCI  33          

$$
NMZ519>523-181100-
CENTRAL VALLEYS/CENTRAL HIGHLANDS
  
CITY           SKY/WX    TMP DP  RH WIND       PRES   REMARKS
ALBUQUERQUE    FAIR      41  24  51 NE6       30.21F                  
DOUBLE EAGLE   FAIR      33  22  63 N6        30.23S WCI  28          
CLINES CORNERS FAIR      31  22  69 E8        30.26F WCI  23          
BELEN          FAIR      32  24  71 N3        30.21F                  
SOCORRO        NOT AVBL                                               

$$
NMZ524>526-539-540-181100-
SOUTHCENTRAL MOUNTAINS
  
CITY           SKY/WX    TMP DP  RH WIND       PRES   REMARKS
RUIDOSO        FAIR      32  23  69 NW3       30.26F                  

$$
NMZ527>531-181100-
NORTHEAST HIGHLANDS/NORTHEAST PLAINS
  
CITY           SKY/WX    TMP DP  RH WIND       PRES   REMARKS
RATON          FAIR      34  21  59 N13       30.27F WCI  25          
CLAYTON        FAIR      35  26  69 N10       30.24F WCI  27          

$$
NMZ532>537-181100-
EASTCENTRAL PLAINS
  
CITY           SKY/WX    TMP DP  RH WIND       PRES   REMARKS
SANTA ROSA     FAIR      33  28  83 CALM      30.25F                  
TUCUMCARI      FAIR      39  27  62 W5        30.23F                  
CANNON AFB     NOT AVBL                                               
CLOVIS AIRPORT FAIR      34  25  69 NW7       30.26F WCI  28          

$$
NMZ028-029-538-181100-
SOUTHEAST PLAINS
  
CITY           SKY/WX    TMP DP  RH WIND       PRES   REMARKS
ROSWELL        FAIR      38  26  62 N3        30.22F                  
ARTESIA        FAIR      36  25  64 NW7       30.23F WCI  30          
CARLSBAD       FAIR      37  27  67 CALM      30.21F                  
HOBBS          FAIR      37  28  70 CALM      30.24F                  


$$